Skip Page Navigation
NASA JPL Caltech
NASA Logo - Jet Propulsion Laboratory + View the NASA Portal
+ Center for Near-Earth Object Studies
JPL Home Earth Solar System Stars & Galaxies Technology
JPL Solar System Dynamics
BODIES ORBITS EPHEMERIDES TOOLS PHYSICAL DATA DISCOVERY FAQ SITE MAP

Significant website upgrade scheduled for September 27. More details available here.

JPL Small-Body Database Browser
Search: [ help ]  
21819 (1999 TX32)
Classification: Main-belt Asteroid          SPK-ID: 2021819
Ephemeris | Orbit Diagram | Orbital Elements | Mission Design | Physical Parameters | Discovery Circumstances | Close-Approach Data ]

[ hide orbit diagram ]

For accurate long-term ephemerides, please instead use our Horizons system.This orbit viewer was implemented using two-body methods, and hence should not be used for determining accurate long-term trajectories (over several years or decades) or planetary encounter circumstances.


Orbital Elements at Epoch 2459396.5 (2021-Jul-01.0) TDB
Reference: JPL 30 (heliocentric ecliptic J2000)
 Element Value Uncertainty (1-sigma)   Units 
e .08766185577769539 2.9121e-08  
a 3.16168004236199 1.7976e-08 au
q 2.884521302473236 9.3007e-08 au
i 1.058935534140903 3.3163e-06 deg
node 234.972277199665 0.00018943 deg
peri 19.50029412874797 0.00019087 deg
M 63.32871488403134 2.1292e-05 deg
tp 2459035.278594676284
(2020-Jul-04.77859468)
0.00012246 TDB
period 2053.408254923042
5.62
1.7512e-05
4.795e-08
d
yr
n .1753182783486434 1.4952e-09 deg/d
Q 3.438838782250745 1.9552e-08 au
  Orbit Determination Parameters
   # obs. used (total)      1678  
   data-arc span      8895 days (24.35 yr)  
   first obs. used      1997-04-01  
   last obs. used      2021-08-08  
   planetary ephem.      DE441  
   SB-pert. ephem.      SB441-N16  
   condition code      0  
   norm. resid. RMS      .50612  
   source      ORB  
   producer      Otto Matic  
   solution date      2021-Aug-24 22:45:55  

Additional Information
 Earth MOID = 1.86994 au 
 Jupiter MOID = 1.59142 au 
 T_jup = 3.198 
[ show covariance matrix ]

Ephemeris | Orbit Diagram | Orbital Elements | Mission Design | Physical Parameters | Discovery Circumstances | Close-Approach Data ]

Physical Parameter Table
Parameter Symbol Value Units Sigma Reference Notes
absolute magnitude H 13.73   n/a MPO636391  

21819 (1999 TX32)          Discovered 1999-Oct-04 by LINEAR at Socorro
Reference: 20010208/Numbers.arcLast Updated: 2004-04-19

[ show close-approach data ]
Alternate Designations
 1999 TX32 = 1998 MG36 
Ephemeris | Orbit Diagram | Orbital Elements | Mission Design | Physical Parameters | Discovery Circumstances | Close-Approach Data ]
ABOUT SSD CREDITS/AWARDS PRIVACY/COPYRIGHT GLOSSARY LINKS
FirstGov 2021-Sep-22 12:33 UT
(server date/time)  
NASA Home Page
Site Manager:   Ryan S. Park
Webmaster  Alan B. Chamberlin